Simultaneous Nadir Overpasses (SNOs) Predictions

Prediction of SNOs between GOES-16 and METOP-A Satellite Orbit:

Table of predicted SNOs for the next 14.0 days since TLE Epoch: 11/27/2021
Index Date Time (GOES-16) GOES-16 Lat,Lon METOP-A Lat,Lon Distance(km) Time Diff (sec)
1 11/27/2021 13:09:00 -0.03, -75.21 0.92, -79.59 498.33 80
2 11/29/2021 12:47:35 -0.03, -75.20 -0.23, -74.33 100.03 80
3 11/30/2021 01:05:29 0.03, -75.18 -0.75, -78.63 393.81 80
4 12/02/2021 00:46:43 0.03, -75.17 0.40, -73.36 205.49 80
5 12/02/2021 13:04:00 -0.03, -75.19 0.64, -78.18 340.29 80
6 12/04/2021 12:45:15 -0.02, -75.19 -0.52, -72.91 259.27 80
7 12/05/2021 01:00:29 0.02, -75.17 -0.42, -77.23 234.66 80
8 12/07/2021 00:41:44 0.00, -75.16 0.73, -71.97 364.70 80
9 12/07/2021 12:58:59 -0.00, -75.19 0.31, -76.77 179.52 80
10 12/09/2021 12:37:31 0.00, -75.19 -0.81, -71.49 421.87 80
11 12/10/2021 00:58:11 -0.00, -75.18 -0.16, -75.82 74.03 80
